DB0TGO-14 Weather Reports


Display with metric or nautical units.
time (UTC)temp
F
wind
direction
speed
MPH
gust
MPH
rain 1hr
in
rain 24hr
in
rain mn
in
humidity
%
barometer
mb
20260831194203 63 225 5.0 9.0 0.00 0.22 0.22 81 1012.7
20260831194043 62 248 5.0 9.0 0.00 0.22 0.22 81 1012.7
20260831194022 62 202 5.0 9.0 0.00 0.22 0.22 81 1012.6
20260831193826 62 225 5.0 5.0 0.00 0.22 0.22 82 1012.6
20260831193646 62 225 4.0 6.0 0.00 0.22 0.22 82 1012.7
20260831193503 62 225 4.0 5.0 0.00 0.22 0.22 82 1012.6
20260831193325 62 225 4.0 8.0 0.00 0.22 0.22 82 1012.6
20260831193130 62 248 4.0 8.0 0.00 0.22 0.22 81 1012.6
20260831192940 62 202 4.0 6.0 0.00 0.22 0.22 83 1012.6
20260831192750 62 270 4.0 6.0 0.00 0.22 0.22 83 1012.6
20260831192548 62 248 4.0 6.0 0.00 0.22 0.22 83 1012.6
20260831192356 62 292 4.0 6.0 0.00 0.22 0.22 84 1012.5
20260831192343 62 270 4.0 6.0 0.00 0.22 0.22 84 1012.5
20260831192158 62 225 4.0 6.0 0.02 0.22 0.22 84 1012.6
20260831192018 62 270 4.0 6.0 0.02 0.22 0.22 83 1012.6
20260831191830 62 248 4.0 7.0 0.02 0.22 0.22 84 1012.6
20260831191651 62 248 4.0 7.0 0.02 0.22 0.22 84 1012.6
20260831191502 62 248 4.0 7.0 0.02 0.22 0.22 85 1012.5
20260831191320 62 225 4.0 7.0 0.02 0.22 0.22 85 1012.5
20260831191120 62 292 4.0 6.0 0.02 0.22 0.22 84 1012.5
20260831190940 62 248 4.0 6.0 0.02 0.22 0.22 84 1012.4
20260831190753 62 202 4.0 8.0 0.02 0.22 0.22 85 1012.4
20260831190607 62 202 4.0 8.0 0.02 0.22 0.22 84 1012.5
20260831190409 62 248 4.0 8.0 0.02 0.22 0.22 84 1012.4
20260831190225 62 202 4.0 5.0 0.02 0.22 0.22 84 1012.3
20260831190035 62 248 4.0 5.0 0.02 0.22 0.22 83 1012.4
20260831185850 62 270 4.0 6.0 0.02 0.22 0.22 84 1012.3
20260831185655 62 202 4.0 6.0 0.02 0.22 0.22 84 1012.3
20260831185500 62 270 4.0 6.0 0.02 0.22 0.22 84 1012.2
20260831185308 62 225 4.0 6.0 0.02 0.22 0.22 84 1012.1
20260831185119 62 225 4.0 6.0 0.02 0.22 0.22 85 1012.2
20260831184925 62 292 4.0 6.0 0.02 0.22 0.22 84 1012.2
20260831184735 62 270 4.0 6.0 0.02 0.22 0.22 86 1012.2
20260831184555 62 292 4.0 6.0 0.02 0.22 0.22 86 1012.2
20260831184410 62 270 4.0 6.0 0.02 0.22 0.22 86 1012.1
20260831184215 62 202 5.0 6.0 0.02 0.22 0.22 86 1012.1
20260831184018 62 270 5.0 6.0 0.02 0.22 0.22 86 1012.1
20260831183820 63 225 4.0 7.0 0.02 0.22 0.22 86 1012.1
20260831183629 63 248 4.0 7.0 0.02 0.22 0.22 87 1012.1
20260831183435 63 225 4.0 7.0 0.02 0.22 0.22 87 1012.1
20260831183255 63 270 4.0 7.0 0.02 0.22 0.22 87 1012.1
20260831183242 63 292 4.0 7.0 0.02 0.22 0.22 87 1012.2
20260831183115 63 292 4.0 6.0 0.02 0.22 0.22 87 1012.2
20260831182920 63 248 5.0 7.0 0.02 0.22 0.22 86 1012.2
20260831182730 63 248 5.0 7.0 0.02 0.22 0.22 87 1012.2
20260831182530 64 270 5.0 9.0 0.02 0.22 0.22 86 1012.2
20260831182330 64 248 5.0 9.0 0.02 0.22 0.22 86 1012.2
20260831182130 64 225 5.0 9.0 0.02 0.22 0.22 85 1012.2
20260831181935 64 270 5.0 9.0 0.00 0.20 0.20 85 1012.2
20260831181749 64 248 5.0 9.0 0.00 0.20 0.20 84 1012.2
20260831181726 64 270 5.0 9.0 0.00 0.20 0.20 84 1012.1
20260831181605 64 248 6.0 9.0 0.00 0.20 0.20 83 1012.2
20260831181415 64 225 6.0 13.0 0.00 0.20 0.20 83 1012.2
20260831181220 65 270 7.0 13.0 0.00 0.20 0.20 84 1012.3
20260831181020 65 270 7.0 13.0 0.00 0.20 0.20 83 1012.3
20260831180840 65 248 7.0 10.0 0.00 0.20 0.20 84 1012.3
20260831180702 65 292 7.0 10.0 0.00 0.20 0.20 83 1012.3
20260831180515 65 225 8.0 11.0 0.00 0.20 0.20 83 1012.3
20260831180330 65 202 7.0 11.0 0.00 0.20 0.20 83 1012.4
20260831180145 65 225 7.0 11.0 0.02 0.20 0.20 83 1012.4
20260831180112 65 225 7.0 11.0 0.02 0.20 0.20 83 1012.5
20260831180005 65 270 7.0 11.0 0.02 0.20 0.20 84 1012.4
20260831175830 65 270 7.0 11.0 0.02 0.20 0.20 83 1012.4
20260831175631 65 202 7.0 11.0 0.08 0.20 0.20 83 1012.3
20260831175435 65 292 7.0 10.0 0.08 0.20 0.20 83 1012.4
20260831175246 65 225 8.0 10.0 0.09 0.20 0.20 82 1012.4
20260831175107 65 248 7.0 12.0 0.09 0.20 0.20 83 1012.4
20260831174930 65 248 7.0 12.0 0.09 0.20 0.20 83 1012.4
20260831174752 65 292 7.0 12.0 0.09 0.20 0.20 81 1012.3
20260831174605 65 248 7.0 12.0 0.09 0.20 0.20 82 1012.3
20260831174420 65 225 6.0 12.0 0.09 0.20 0.20 83 1012.3
20260831174305 64 202 6.0 11.0 0.09 0.20 0.20 83 1012.2
20260831174230 64 248 6.0 11.0 0.09 0.20 0.20 84 1012.1
20260831174048 64 248 5.0 8.0 0.09 0.20 0.20 84 1012.1
20260831173855 64 248 5.0 7.0 0.09 0.20 0.20 85 1012.0
20260831173706 64 270 5.0 6.0 0.09 0.20 0.20 85 1011.8
20260831173508 64 248 5.0 6.0 0.09 0.20 0.20 85 1011.8
20260831173310 64 225 6.0 8.0 0.09 0.20 0.20 84 1011.7
20260831173120 64 225 6.0 8.0 0.09 0.20 0.20 84 1011.7
20260831172935 64 270 6.0 8.0 0.09 0.20 0.20 85 1011.7
20260831172732 64 225 6.0 8.0 0.09 0.20 0.20 85 1011.7
20260831172535 64 225 6.0 8.0 0.09 0.20 0.20 87 1011.7
20260831172345 64 270 6.0 8.0 0.09 0.20 0.20 86 1011.9
20260831172150 63 248 7.0 12.0 0.09 0.20 0.20 87 1011.8
20260831172005 63 270 7.0 12.0 0.09 0.20 0.20 87 1011.7
20260831171815 63 270 7.0 12.0 0.09 0.20 0.20 85 1011.8
20260831171620 63 248 6.0 12.0 0.09 0.20 0.20 87 1011.8
20260831171438 63 270 6.0 11.0 0.09 0.20 0.20 89 1011.6
20260831171250 63 248 6.0 10.0 0.09 0.20 0.20 90 1011.7
20260831171133 63 270 6.0 10.0 0.09 0.20 0.20 90 1011.6
20260831171105 63 225 5.0 9.0 0.09 0.20 0.20 91 1011.7
20260831170915 63 270 5.0 9.0 0.09 0.20 0.20 91 1011.7
20260831170725 63 202 5.0 8.0 0.09 0.20 0.20 92 1011.7
20260831170525 63 225 5.0 10.0 0.09 0.20 0.20 91 1011.6
20260831170340 64 202 5.0 6.0 0.09 0.20 0.20 91 1011.6
20260831170145 64 315 6.0 15.0 0.09 0.20 0.20 91 1011.7
20260831165948 66 338 8.0 15.0 0.09 0.20 0.20 90 1011.6
20260831165800 67 225 9.0 17.0 0.08 0.19 0.19 90 1011.7
20260831165605 70 292 9.0 19.0 0.08 0.19 0.19 88 1012.0
20260831165415 71 248 9.0 19.0 0.08 0.19 0.19 86 1011.9
20260831165235 73 248 8.0 19.0 0.02 0.13 0.13 79 1012.0
20260831165045 73 270 7.0 19.0 0.02 0.13 0.13 78 1011.9
20260831164855 74 270 6.0 17.0 0.02 0.13 0.13 72 1011.8
20260831164710 75 315 6.0 10.0 0.00 0.11 0.11 53 1011.5
20260831164531 75 248 5.0 9.0 0.00 0.11 0.11 53 1011.1
20260831164345 75 248 6.0 8.0 0.00 0.11 0.11 52 1010.7
20260831164149 75 248 6.0 8.0 0.00 0.11 0.11 51 1010.7
20260831164005 76 202 6.0 10.0 0.00 0.11 0.11 52 1010.7
20260831163810 76 248 6.0 10.0 0.00 0.11 0.11 52 1010.6
20260831163630 76 248 7.0 11.0 0.00 0.11 0.11 51 1010.5
20260831163538 76 248 7.0 11.0 0.00 0.11 0.11 51 1010.6
20260831163445 76 225 7.0 11.0 0.00 0.11 0.11 51 1010.6
20260831163305 76 180 7.0 11.0 0.00 0.11 0.11 50 1010.6
20260831163115 76 292 6.0 10.0 0.00 0.11 0.11 50 1010.5
20260831162925 76 248 6.0 10.0 0.00 0.11 0.11 50 1010.4
20260831162744 76 248 6.0 10.0 0.00 0.11 0.11 50 1010.5
20260831162545 76 248 6.0 11.0 0.00 0.11 0.11 51 1010.5
20260831162400 76 225 6.0 11.0 0.00 0.11 0.11 51 1010.5
20260831162205 76 225 6.0 11.0 0.00 0.11 0.11 50 1010.4
20260831162020 76 202 5.0 10.0 0.00 0.11 0.11 50 1010.5
20260831161829 76 202 5.0 10.0 0.00 0.11 0.11 49 1010.4
20260831161804 76 270 5.0 10.0 0.00 0.11 0.11 50 1010.5
20260831161640 76 202 5.0 10.0 0.00 0.11 0.11 51 1010.4
20260831161445 76 225 6.0 9.0 0.00 0.11 0.11 51 1010.5
20260831161250 76 225 6.0 8.0 0.00 0.11 0.11 51 1010.5
20260831161055 76 180 6.0 11.0 0.00 0.11 0.11 51 1010.5
20260831160900 76 202 6.0 11.0 0.00 0.11 0.11 52 1010.5
20260831160700 76 202 6.0 11.0 0.00 0.11 0.11 51 1010.5
20260831160505 76 158 6.0 10.0 0.00 0.11 0.11 53 1010.5
20260831160315 76 270 6.0 10.0 0.00 0.11 0.11 52 1010.5
20260831160125 76 180 6.0 10.0 0.00 0.11 0.11 52 1010.5
20260831160032 76 292 6.0 10.0 0.00 0.11 0.11 52 1010.5
20260831155944 76 248 6.0 10.0 0.00 0.11 0.11 51 1010.5
20260831155755 76 225 6.0 11.0 0.00 0.11 0.11 52 1010.5
20260831155615 76 225 6.0 11.0 0.00 0.11 0.11 51 1010.5
20260831155420 76 202 7.0 11.0 0.00 0.11 0.11 52 1010.5
20260831155240 76 180 7.0 11.0 0.00 0.11 0.11 53 1010.6
20260831155055 76 248 6.0 11.0 0.00 0.11 0.11 53 1010.6
20260831154910 76 158 6.0 11.0 0.00 0.11 0.11 54 1010.5
20260831154732 76 225 6.0 11.0 0.00 0.11 0.11 54 1010.6
20260831154555 76 270 6.0 9.0 0.00 0.11 0.11 54 1010.5
20260831154507 76 68 6.0 9.0 0.00 0.11 0.11 55 1010.5
20260831154406 76 202 6.0 10.0 0.00 0.11 0.11 55 1010.6
20260831154228 76 202 6.0 10.0 0.00 0.11 0.11 55 1010.6
20260831154037 76 202 6.0 12.0 0.00 0.11 0.11 55 1010.6
20260831153852 76 225 6.0 12.0 0.00 0.11 0.11 55 1010.6
20260831153704 76 180 6.0 12.0 0.00 0.11 0.11 55 1010.6
20260831153508 76 248 6.0 10.0 0.00 0.11 0.11 55 1010.7
20260831153315 76 180 7.0 10.0 0.00 0.11 0.11 54 1010.6
20260831153120 76 202 7.0 11.0 0.00 0.11 0.11 55 1010.7
20260831152957 76 180 7.0 11.0 0.00 0.11 0.11 55 1010.7
20260831152930 76 292 7.0 11.0 0.00 0.11 0.11 55 1010.7
20260831152735 76 248 7.0 10.0 0.00 0.11 0.11 54 1010.7
20260831152542 76 248 7.0 9.0 0.00 0.11 0.11 55 1010.7
20260831152350 77 180 7.0 9.0 0.00 0.11 0.11 55 1010.7
20260831152158 77 225 7.0 10.0 0.00 0.11 0.11 54 1010.8
20260831152000 77 248 7.0 10.0 0.00 0.11 0.11 54 1010.8
20260831151820 77 225 7.0 13.0 0.00 0.11 0.11 53 1010.8
20260831151633 78 292 7.0 13.0 0.00 0.11 0.11 53 1010.8
20260831151450 78 202 7.0 13.0 0.00 0.11 0.11 53 1010.8
20260831151304 78 292 7.0 10.0 0.00 0.11 0.11 53 1010.7
20260831151107 78 270 7.0 12.0 0.00 0.11 0.11 53 1010.8
20260831150925 78 135 7.0 12.0 0.00 0.11 0.11 52 1010.8
20260831150732 78 135 7.0 11.0 0.00 0.11 0.11 51 1010.8
20260831150555 78 202 7.0 11.0 0.00 0.11 0.11 51 1010.7
20260831150400 78 270 7.0 11.0 0.00 0.11 0.11 51 1010.8
20260831150215 78 202 7.0 11.0 0.00 0.11 0.11 53 1010.7
20260831150013 78 225 7.0 11.0 0.00 0.11 0.11 52 1010.7
20260831145830 78 202 7.0 15.0 0.00 0.11 0.11 52 1010.7
20260831145655 78 135 8.0 15.0 0.00 0.11 0.11 52 1010.7
20260831145536 78 292 8.0 15.0 0.00 0.11 0.11 52 1010.7
20260831145500 78 225 8.0 15.0 0.00 0.11 0.11 54 1010.7
20260831145314 78 180 7.0 11.0 0.00 0.11 0.11 53 1010.8
20260831145120 78 180 7.0 16.0 0.00 0.11 0.11 53 1010.8
20260831144929 78 202 6.0 16.0 0.00 0.11 0.11 53 1010.7
20260831144740 77 225 6.0 10.0 0.00 0.11 0.11 52 1010.8
20260831144600 77 292 6.0 10.0 0.00 0.11 0.11 54 1010.8
20260831144413 77 225 6.0 11.0 0.00 0.11 0.11 53 1010.8
20260831144215 77 158 6.0 11.0 0.00 0.11 0.11 55 1010.8
20260831144028 77 225 7.0 11.0 0.00 0.11 0.11 55 1010.8
20260831143855 77 180 7.0 11.0 0.00 0.11 0.11 56 1010.8
20260831143705 77 248 7.0 11.0 0.00 0.11 0.11 56 1010.8
20260831143512 77 225 7.0 11.0 0.00 0.11 0.11 56 1010.9
20260831143336 77 315 6.0 11.0 0.00 0.11 0.11 55 1010.8
20260831143150 77 180 6.0 11.0 0.00 0.11 0.11 54 1010.8
20260831143010 77 248 6.0 11.0 0.00 0.11 0.11 54 1010.8
20260831142819 77 202 7.0 11.0 0.00 0.11 0.11 54 1010.8
20260831142625 77 248 7.0 11.0 0.00 0.11 0.11 55 1010.8
20260831142439 77 270 7.0 12.0 0.00 0.11 0.11 55 1010.8
20260831142251 78 225 8.0 12.0 0.00 0.11 0.11 55 1010.9
20260831142148 78 225 8.0 12.0 0.00 0.11 0.11 55 1010.8
20260831142100 78 225 8.0 12.0 0.00 0.11 0.11 54 1010.9
20260831141906 78 202 7.0 11.0 0.00 0.11 0.11 54 1010.8
20260831141730 78 248 6.0 11.0 0.00 0.11 0.11 55 1010.9
20260831141530 78 225 6.0 10.0 0.00 0.11 0.11 55 1010.9
20260831141338 78 225 6.0 10.0 0.00 0.11 0.11 55 1010.9
20260831141155 78 270 6.0 9.0 0.00 0.11 0.11 55 1010.9
20260831141005 78 202 5.0 10.0 0.00 0.11 0.11 54 1010.9
20260831140813 77 225 6.0 10.0 0.00 0.11 0.11 55 1010.8
20260831140635 77 180 6.0 10.0 0.00 0.11 0.11 56 1010.8
20260831140512 77 180 6.0 10.0 0.00 0.11 0.11 56 1010.8
20260831140440 77 202 6.0 10.0 0.00 0.11 0.11 56 1010.8
20260831140245 77 315 6.0 11.0 0.00 0.11 0.11 56 1010.9
20260831140055 77 292 7.0 11.0 0.00 0.11 0.11 57 1010.9
20260831135900 77 202 7.0 11.0 0.00 0.11 0.11 57 1010.9
20260831135700 77 225 7.0 11.0 0.00 0.11 0.11 57 1010.9
20260831135500 77 202 7.0 11.0 0.00 0.11 0.11 57 1010.9
20260831135320 77 202 7.0 13.0 0.00 0.11 0.11 57 1011.0
20260831135125 77 248 7.0 13.0 0.00 0.11 0.11 58 1011.1
20260831134924 77 180 7.0 11.0 0.00 0.11 0.11 57 1011.0
20260831134740 77 225 7.0 11.0 0.00 0.11 0.11 56 1011.0
20260831134600 77 225 8.0 11.0 0.00 0.11 0.11 57 1011.0
20260831134415 77 292 8.0 11.0 0.00 0.11 0.11 57 1011.0
20260831134220 77 248 8.0 15.0 0.00 0.11 0.11 56 1011.0
20260831134025 77 202 8.0 15.0 0.00 0.11 0.11 56 1011.0
20260831133840 77 292 9.0 15.0 0.00 0.11 0.11 56 1011.0
20260831133659 77 225 8.0 16.0 0.00 0.11 0.11 56 1011.1
20260831133505 77 248 8.0 16.0 0.00 0.11 0.11 56 1010.9
20260831133325 77 248 9.0 16.0 0.00 0.11 0.11 55 1011.0
20260831133237 77 202 8.0 16.0 0.00 0.11 0.11 55 1010.9
20260831133125 78 202 8.0 16.0 0.00 0.11 0.11 54 1011.0
20260831132937 77 248 8.0 11.0 0.00 0.11 0.11 55 1010.9
20260831132745 77 248 8.0 13.0 0.00 0.11 0.11 57 1011.0
20260831132606 77 225 8.0 13.0 0.00 0.11 0.11 57 1011.0
20260831132420 77 202 8.0 13.0 0.00 0.11 0.11 56 1011.1
20260831132230 77 202 8.0 12.0 0.00 0.11 0.11 54 1011.1
20260831132030 77 270 8.0 13.0 0.00 0.11 0.11 56 1011.0
20260831131845 77 180 8.0 13.0 0.00 0.11 0.11 55 1011.1
20260831131703 77 248 8.0 13.0 0.00 0.11 0.11 55 1011.2
20260831131518 77 202 8.0 13.0 0.00 0.11 0.11 56 1011.2
20260831131338 77 202 8.0 13.0 0.00 0.11 0.11 57 1011.1
20260831131155 77 248 8.0 11.0 0.00 0.11 0.11 56 1011.1
20260831131000 77 225 8.0 16.0 0.00 0.11 0.11 56 1011.3
20260831130815 77 202 8.0 16.0 0.00 0.11 0.11 56 1011.0
20260831130615 77 225 8.0 16.0 0.00 0.11 0.11 56 1011.1
20260831130425 77 225 8.0 12.0 0.00 0.11 0.11 56 1011.1
20260831130230 77 225 8.0 12.0 0.00 0.11 0.11 56 1011.1
20260831130035 77 248 8.0 12.0 0.00 0.11 0.11 57 1011.2
20260831125835 77 270 8.0 19.0 0.00 0.11 0.11 57 1011.1
20260831125640 77 202 9.0 19.0 0.00 0.11 0.11 55 1011.1
20260831125607 77 202 9.0 19.0 0.00 0.11 0.11 55 1011.1
20260831125446 77 270 8.0 12.0 0.00 0.11 0.11 56 1011.2
20260831125306 77 248 8.0 12.0 0.00 0.11 0.11 56 1011.1
20260831125125 77 225 8.0 15.0 0.00 0.11 0.11 57 1011.2
20260831124935 77 225 7.0 15.0 0.00 0.11 0.11 57 1011.2
20260831124735 77 225 7.0 11.0 0.00 0.11 0.11 57 1011.2
20260831124555 77 180 7.0 11.0 0.00 0.11 0.11 55 1011.1
20260831124400 77 248 6.0 11.0 0.00 0.11 0.11 56 1011.2
20260831124205 77 202 6.0 11.0 0.00 0.11 0.11 57 1011.2
20260831124020 77 225 6.0 10.0 0.00 0.11 0.11 56 1011.2
20260831123844 77 202 6.0 11.0 0.00 0.11 0.11 58 1011.3
20260831123650 77 248 7.0 11.0 0.00 0.11 0.11 56 1011.2
20260831123505 76 202 7.0 11.0 0.00 0.11 0.11 58 1011.2
20260831123315 76 270 8.0 11.0 0.00 0.11 0.11 58 1011.2
20260831123115 76 248 7.0 13.0 0.00 0.11 0.11 58 1011.3
20260831122930 76 248 7.0 13.0 0.00 0.11 0.11 60 1011.3
20260831122750 76 248 7.0 13.0 0.00 0.11 0.11 60 1011.2
20260831122556 76 202 7.0 12.0 0.00 0.11 0.11 60 1011.2
20260831122418 76 135 7.0 12.0 0.00 0.11 0.11 60 1011.2
20260831122230 76 202 6.0 11.0 0.00 0.11 0.11 60 1011.3
20260831122203 76 225 6.0 11.0 0.00 0.11 0.11 60 1011.3
20260831122045 76 202 6.0 11.0 0.00 0.11 0.11 60 1011.2
20260831121900 76 180 6.0 11.0 0.00 0.11 0.11 62 1011.3
20260831121705 76 225 7.0 11.0 0.00 0.11 0.11 62 1011.3
20260831121511 76 292 6.0 13.0 0.00 0.11 0.11 62 1011.3
20260831121330 76 225 7.0 13.0 0.00 0.11 0.11 62 1011.3
20260831121135 76 225 7.0 13.0 0.00 0.11 0.11 62 1011.3
20260831120955 76 180 7.0 10.0 0.00 0.11 0.11 64 1011.4
20260831120759 76 270 7.0 10.0 0.00 0.11 0.11 63 1011.3
20260831120609 76 135 6.0 10.0 0.00 0.11 0.11 61 1011.3
20260831120447 76 225 6.0 11.0 0.00 0.11 0.11 62 1011.3
20260831120410 76 248 7.0 11.0 0.00 0.11 0.11 62 1011.3
20260831120226 76 202 7.0 11.0 0.00 0.11 0.11 62 1011.3
20260831120040 76 202 7.0 11.0 0.00 0.11 0.11 60 1011.3
20260831115855 76 202 7.0 11.0 0.00 0.11 0.11 61 1011.3
20260831115700 76 270 7.0 11.0 0.00 0.11 0.11 61 1011.3
20260831115515 76 202 7.0 11.0 0.00 0.11 0.11 62 1011.4
20260831115335 76 180 7.0 11.0 0.00 0.11 0.11 61 1011.4
20260831115135 76 202 7.0 10.0 0.00 0.11 0.11 63 1011.4
20260831114949 76 180 7.0 10.0 0.00 0.11 0.11 63 1011.4
20260831114805 76 202 7.0 10.0 0.00 0.11 0.11 62 1011.4
20260831114713 76 270 7.0 10.0 0.00 0.11 0.11 63 1011.4
20260831114625 76 202 7.0 10.0 0.00 0.11 0.11 63 1011.4
20260831114435 75 292 7.0 10.0 0.00 0.11 0.11 63 1011.3
20260831114245 75 225 7.0 10.0 0.00 0.11 0.11 63 1011.4
20260831114105 75 180 7.0 11.0 0.00 0.11 0.11 64 1011.4
20260831113910 75 225 7.0 11.0 0.00 0.11 0.11 64 1011.5
20260831113720 75 112 6.0 10.0 0.00 0.11 0.11 64 1011.4
20260831113539 75 248 6.0 10.0 0.00 0.11 0.11 63 1011.4
20260831113355 75 248 6.0 10.0 0.00 0.11 0.11 65 1011.5
20260831113205 75 202 6.0 10.0 0.00 0.11 0.11 65 1011.4
20260831113023 75 180 6.0 10.0 0.00 0.11 0.11 66 1011.5
20260831112910 75 202 6.0 11.0 0.00 0.11 0.11 66 1011.4
20260831112839 75 180 6.0 11.0 0.00 0.11 0.11 66 1011.4
20260831112652 75 202 6.0 11.0 0.00 0.11 0.11 66 1011.4
20260831112504 75 202 7.0 11.0 0.00 0.11 0.11 65 1011.5
20260831112310 75 180 7.0 10.0 0.00 0.11 0.11 66 1011.4
20260831112120 75 270 6.0 10.0 0.00 0.11 0.11 66 1011.5
20260831111920 75 202 6.0 10.0 0.00 0.11 0.11 67 1011.4
20260831111732 75 270 6.0 11.0 0.00 0.11 0.11 67 1011.5
20260831111535 75 225 6.0 11.0 0.00 0.11 0.11 67 1011.5
20260831111339 75 225 6.0 11.0 0.00 0.11 0.11 67 1011.5
20260831111303 75 248 6.0 11.0 0.00 0.11 0.11 66 1011.5
20260831111139 75 202 6.0 8.0 0.00 0.11 0.11 67 1011.5
20260831110945 75 270 6.0 9.0 0.00 0.11 0.11 67 1011.5
20260831110805 75 68 6.0 9.0 0.00 0.11 0.11 67 1011.5
20260831110608 74 180 6.0 9.0 0.00 0.11 0.11 66 1011.6
20260831110425 74 248 6.0 10.0 0.00 0.11 0.11 67 1011.6
20260831110239 74 248 6.0 10.0 0.00 0.11 0.11 67 1011.6
20260831110042 74 202 6.0 10.0 0.00 0.11 0.11 67 1011.6
20260831105905 74 338 6.0 9.0 0.00 0.11 0.11 66 1011.7
20260831105729 74 202 6.0 9.0 0.00 0.11 0.11 68 1011.7
20260831105535 73 292 6.0 9.0 0.00 0.11 0.11 70 1011.7
20260831105517 73 248 6.0 9.0 0.00 0.11 0.11 70 1011.7
20260831105350 73 202 6.0 9.0 0.00 0.11 0.11 70 1011.7
20260831105205 73 202 6.0 10.0 0.00 0.11 0.11 69 1011.7
20260831105015 73 248 7.0 10.0 0.00 0.11 0.11 69 1011.7
20260831104829 73 292 6.0 10.0 0.00 0.11 0.11 69 1011.6
20260831104635 72 180 7.0 10.0 0.00 0.11 0.11 70 1011.7
20260831104434 72 225 7.0 12.0 0.00 0.11 0.11 72 1011.6
20260831104240 72 270 8.0 12.0 0.00 0.11 0.11 71 1011.7
20260831104058 72 248 8.0 11.0 0.00 0.11 0.11 71 1011.7
20260831103920 72 202 8.0 11.0 0.00 0.11 0.11 71 1011.7
20260831103739 72 225 7.0 11.0 0.00 0.11 0.11 71 1011.6
20260831103642 72 202 7.0 11.0 0.00 0.11 0.11 71 1011.7
20260831103539 72 180 7.0 11.0 0.00 0.11 0.11 70 1011.6
20260831103350 73 202 6.0 11.0 0.00 0.11 0.11 70 1011.6
20260831103201 73 158 6.0 11.0 0.00 0.11 0.11 71 1011.7
20260831103020 72 180 7.0 11.0 0.00 0.11 0.11 71 1011.6
20260831102845 72 292 6.0 11.0 0.00 0.11 0.11 71 1011.8
20260831102705 72 270 6.0 10.0 0.00 0.11 0.11 70 1011.7
20260831102522 72 202 6.0 11.0 0.00 0.11 0.11 70 1011.7
20260831102335 72 248 6.0 11.0 0.00 0.11 0.11 70 1011.7
20260831102140 72 180 6.0 9.0 0.00 0.11 0.11 69 1011.7
20260831101955 72 180 6.0 9.0 0.00 0.11 0.11 71 1011.7
20260831101937 72 180 6.0 11.0 0.00 0.11 0.11 70 1011.7
20260831101802 72 270 7.0 11.0 0.00 0.11 0.11 71 1011.7
20260831101625 72 225 7.0 11.0 0.00 0.11 0.11 70 1011.8
20260831101430 72 180 6.0 13.0 0.00 0.11 0.11 71 1011.8
20260831101245 72 202 6.0 13.0 0.00 0.11 0.11 71 1011.8
20260831101053 72 225 7.0 13.0 0.00 0.11 0.11 71 1011.7
20260831100905 71 202 6.0 11.0 0.00 0.11 0.11 72 1011.7
20260831100705 71 225 6.0 11.0 0.00 0.11 0.11 73 1011.8
20260831100521 71 225 6.0 9.0 0.00 0.11 0.11 72 1011.8
20260831100427 71 158 6.0 9.0 0.00 0.11 0.11 74 1011.8
20260831100332 71 158 6.0 9.0 0.00 0.11 0.11 74 1011.8
20260831100135 71 180 6.0 9.0 0.00 0.11 0.11 74 1011.8
20260831100000 71 202 6.0 9.0 0.00 0.11 0.11 75 1011.8
20260831095815 70 202 6.0 9.0 0.00 0.11 0.11 76 1011.8
20260831095639 70 270 6.0 10.0 0.00 0.11 0.11 78 1011.9
20260831095451 70 225 6.0 10.0 0.00 0.11 0.11 77 1011.9
20260831095309 70 225 6.0 10.0 0.00 0.11 0.11 77 1012.0
20260831095125 70 248 6.0 10.0 0.00 0.11 0.11 76 1012.0
20260831094934 70 225 6.0 9.0 0.00 0.11 0.11 77 1011.9
20260831094746 70 180 6.0 9.0 0.00 0.11 0.11 78 1011.9
20260831094635 70 202 6.0 9.0 0.00 0.11 0.11 78 1012.0
20260831094555 70 225 6.0 9.0 0.00 0.11 0.11 77 1012.0
20260831094410 70 225 5.0 9.0 0.00 0.11 0.11 77 1012.0
20260831094215 69 248 5.0 8.0 0.00 0.11 0.11 78 1012.0
20260831094018 69 202 5.0 10.0 0.00 0.11 0.11 79 1012.0
20260831093825 69 225 5.0 10.0 0.00 0.11 0.11 79 1012.0
20260831093645 69 202 4.0 10.0 0.00 0.11 0.11 80 1012.0
20260831093444 69 202 5.0 8.0 0.00 0.11 0.11 79 1012.1
20260831093251 69 248 5.0 6.0 0.00 0.11 0.11 80 1012.1
20260831093115 68 202 5.0 6.0 0.00 0.11 0.11 81 1012.0
20260831092925 68 202 5.0 11.0 0.00 0.11 0.11 82 1012.1
20260831092750 68 202 5.0 11.0 0.00 0.11 0.11 81 1012.1
20260831092729 68 158 5.0 11.0 0.00 0.11 0.11 81 1012.1
20260831092539 68 180 5.0 11.0 0.00 0.11 0.11 82 1012.1
20260831092355 68 202 5.0 8.0 0.00 0.11 0.11 83 1012.1
20260831092155 68 202 4.0 8.0 0.00 0.11 0.11 83 1012.2
20260831092005 67 180 4.0 8.0 0.00 0.11 0.11 82 1012.2
20260831091821 67 202 4.0 6.0 0.00 0.11 0.11 82 1012.3
20260831091642 67 225 4.0 6.0 0.00 0.11 0.11 83 1012.2
20260831091455 67 158 4.0 6.0 0.00 0.11 0.11 84 1012.4
20260831091317 67 202 4.0 6.0 0.00 0.11 0.11 84 1012.3
20260831091133 66 202 4.0 5.0 0.00 0.11 0.11 84 1012.4
20260831091039 66 202 4.0 5.0 0.00 0.11 0.11 85 1012.4
20260831090950 66 248 4.0 5.0 0.00 0.11 0.11 85 1012.4
20260831090755 66 202 4.0 8.0 0.00 0.11 0.11 86 1012.4
20260831090605 65 202 5.0 8.0 0.00 0.11 0.11 87 1012.4
20260831090410 65 202 4.0 8.0 0.00 0.11 0.11 87 1012.4
20260831090235 65 202 4.0 6.0 0.00 0.11 0.11 87 1012.4
20260831090054 65 180 5.0 7.0 0.00 0.11 0.11 88 1012.4
20260831085910 65 202 5.0 7.0 0.00 0.11 0.11 88 1012.4
20260831085712 64 202 4.0 7.0 0.00 0.11 0.11 89 1012.5
20260831085519 64 180 4.0 7.0 0.00 0.11 0.11 89 1012.4
20260831085332 64 270 4.0 7.0 0.00 0.11 0.11 89 1012.5
20260831085155 64 158 4.0 7.0 0.00 0.11 0.11 90 1012.5
20260831085006 64 180 4.0 8.0 0.00 0.11 0.11 91 1012.5
20260831084808 64 180 4.0 8.0 0.00 0.11 0.11 91 1012.5
20260831084610 63 180 4.0 8.0 0.00 0.11 0.11 91 1012.5
20260831084426 63 180 4.0 7.0 0.00 0.11 0.11 91 1012.5
20260831084241 63 180 4.0 6.0 0.00 0.11 0.11 92 1012.6
20260831084055 63 180 4.0 6.0 0.00 0.11 0.11 92 1012.6
20260831083913 63 180 4.0 8.0 0.00 0.11 0.11 92 1012.5
20260831083802 63 180 4.0 8.0 0.00 0.11 0.11 92 1012.6
20260831083715 63 135 3.0 8.0 0.02 0.11 0.11 92 1012.5
20260831083536 63 202 3.0 8.0 0.02 0.11 0.11 92 1012.5
20260831083345 63 202 3.0 5.0 0.02 0.11 0.11 92 1012.5
20260831083153 63 202 3.0 5.0 0.02 0.11 0.11 92 1012.5
20260831083008 63 180 3.0 5.0 0.02 0.11 0.11 92 1012.5
20260831082826 63 248 3.0 5.0 0.02 0.11 0.11 92 1012.5
20260831082639 62 202 3.0 5.0 0.03 0.11 0.11 92 1012.5
20260831082446 62 180 3.0 5.0 0.03 0.11 0.11 92 1012.5
20260831082255 62 292 4.0 5.0 0.03 0.11 0.11 92 1012.5
20260831082105 62 180 3.0 5.0 0.05 0.11 0.11 92 1012.4
20260831081946 62 202 4.0 8.0 0.05 0.11 0.11 93 1012.4
20260831081910 62 202 4.0 8.0 0.05 0.11 0.11 93 1012.4
20260831081731 62 270 4.0 8.0 0.05 0.11 0.11 93 1012.4
20260831081539 62 270 4.0 8.0 0.05 0.11 0.11 92 1012.4
20260831081350 62 225 4.0 7.0 0.05 0.11 0.11 93 1012.4
20260831081155 62 180 4.0 7.0 0.05 0.11 0.11 93 1012.4
20260831081000 62 180 3.0 7.0 0.06 0.11 0.11 93 1012.4
20260831080805 62 202 2.0 5.0 0.06 0.11 0.11 93 1012.4
20260831080613 62 248 2.0 5.0 0.06 0.11 0.11 93 1012.4
20260831080434 62 202 2.0 5.0 0.08 0.11 0.11 93 1012.5
20260831080255 62 248 2.0 5.0 0.08 0.11 0.11 93 1012.3
20260831080123 62 202 1.0 4.0 0.08 0.11 0.11 94 1012.3
20260831080110 62 202 1.0 4.0 0.08 0.11 0.11 94 1012.3
20260831075915 61 202 2.0 5.0 0.08 0.11 0.11 93 1012.3
20260831075715 61 202 2.0 5.0 0.08 0.11 0.11 93 1012.3
20260831075520 61 202 2.0 5.0 0.08 0.11 0.11 93 1012.3
20260831075335 61 248 2.0 5.0 0.09 0.11 0.11 93 1012.2
20260831075140 61 135 2.0 5.0 0.09 0.11 0.11 93 1012.1
20260831075002 61 202 2.0 5.0 0.09 0.11 0.11 93 1012.1
20260831074819 61 202 2.0 5.0 0.11 0.11 0.11 93 1012.2
20260831074619 61 202 1.0 5.0 0.11 0.11 0.11 93 1012.3
20260831074532 61 202 1.0 5.0 0.11 0.11 0.11 93 1012.3
20260831074425 61 202 1.0 5.0 0.11 0.11 0.11 93 1012.2
20260831074225 61 292 1.0 5.0 0.11 0.11 0.11 93 1012.2
20260831074035 61 292 1.0 5.0 0.11 0.11 0.11 93 1012.3
20260831073839 61 292 0.0 2.0 0.11 0.11 0.11 93 1012.3
20260831073700 61 292 0.0 2.0 0.11 0.11 0.11 93 1012.3
20260831073520 61 292 0.0 2.0 0.11 0.11 0.11 93 1012.2
20260831073325 61 292 1.0 2.0 0.09 0.09 0.09 92 1012.4
20260831073145 61 292 1.0 2.0 0.09 0.09 0.09 92 1012.5
20260831072946 61 292 1.0 2.0 0.09 0.09 0.09 92 1012.4
20260831072827 61 292 2.0 5.0 0.09 0.09 0.09 92 1012.4
20260831072805 61 292 2.0 5.0 0.09 0.09 0.09 92 1012.4
20260831072615 61 292 3.0 5.0 0.09 0.09 0.09 92 1012.4
20260831072420 61 292 3.0 5.0 0.09 0.09 0.09 91 1012.6
20260831072230 62 292 3.0 5.0 0.08 0.08 0.08 91 1012.6
20260831072037 62 248 4.0 6.0 0.08 0.08 0.08 90 1012.5
20260831071850 62 202 3.0 6.0 0.08 0.08 0.08 90 1012.6
20260831071700 62 248 3.0 6.0 0.06 0.06 0.06 90 1012.6
20260831071502 62 248 2.0 5.0 0.06 0.06 0.06 90 1012.6
20260831071320 62 270 3.0 5.0 0.06 0.06 0.06 90 1012.6
20260831071135 62 270 3.0 5.0 0.06 0.06 0.06 89 1012.6
20260831070955 62 202 3.0 7.0 0.06 0.06 0.06 88 1012.5
20260831070809 62 180 4.0 7.0 0.06 0.06 0.06 88 1012.5
20260831070626 62 180 5.0 7.0 0.05 0.05 0.05 88 1012.5
20260831070434 62 202 5.0 8.0 0.05 0.05 0.05 87 1012.4
20260831070235 63 202 4.0 9.0 0.05 0.05 0.05 86 1012.2
20260831070043 63 225 3.0 9.0 0.03 0.03 0.03 86 1012.3
20260831065902 63 135 2.0 9.0 0.03 0.03 0.03 87 1012.2
20260831065715 63 180 1.0 9.0 0.03 0.03 0.03 89 1012.2
20260831065525 63 158 1.0 3.0 0.03 0.03 0.03 90 1012.0
20260831065434 63 158 0.0 2.0 0.03 0.03 0.03 90 1012.1
20260831065332 63 158 0.0 2.0 0.03 0.03 0.03 91 1012.1
20260831065140 63 158 0.0 0.0 0.03 0.03 0.03 90 1012.0
20260831064945 64 158 0.0 1.0 0.02 0.02 0.02 89 1012.0
20260831064755 64 158 0.0 2.0 0.02 0.02 0.02 89 1012.1
20260831064615 64 158 0.0 2.0 0.02 0.02 0.02 89 1012.0
20260831064426 64 158 0.0 2.0 0.00 0.00 0.00 88 1012.0
20260831064240 64 0 0.0 2.0 0.00 0.00 0.00 87 1011.9
20260831064045 64 0 0.0 0.0 0.00 0.00 0.00 86 1011.9
20260831063900 64 0 0.0 0.0 0.00 0.00 0.00 85 1012.0
20260831063701 64 0 0.0 0.0 0.00 0.00 0.00 83 1012.0
20260831063511 64 0 0.0 0.0 0.00 0.00 0.00 83 1012.0
20260831063335 64 0 0.0 0.0 0.00 0.00 0.00 82 1012.0
20260831063140 64 0 0.0 0.0 0.00 0.00 0.00 81 1012.0
20260831062941 64 0 0.0 0.0 0.00 0.00 0.00 80 1012.0
20260831062745 65 0 0.0 0.0 0.00 0.00 0.00 80 1011.9
20260831062555 65 0 0.0 0.0 0.00 0.00 0.00 80 1011.9
20260831062406 65 0 0.0 0.0 0.00 0.00 0.00 79 1011.8
20260831062215 65 0 0.0 0.0 0.00 0.00 0.00 79 1011.8
20260831062056 65 0 0.0 0.0 0.00 0.00 0.00 79 1011.9
20260831062030 65 0 0.0 0.0 0.00 0.00 0.00 79 1011.9
20260831061840 65 0 0.0 0.0 0.00 0.00 0.00 78 1011.8
20260831061655 65 0 0.0 0.0 0.00 0.00 0.00 78 1011.8
20260831061500 65 0 0.0 0.0 0.00 0.00 0.00 78 1011.8
20260831061300 65 0 0.0 1.0 0.00 0.00 0.00 79 1011.8
20260831061105 65 0 0.0 1.0 0.00 0.00 0.00 79 1011.9
20260831060925 65 158 0.0 1.0 0.00 0.00 0.00 78 1011.9
20260831060740 65 158 0.0 1.0 0.00 0.00 0.00 78 1011.9
20260831060600 65 158 0.0 2.0 0.00 0.00 0.00 77 1011.7
20260831060552 65 158 0.0 2.0 0.00 0.00 0.00 78 1011.7
20260831060414 65 158 0.0 2.0 0.00 0.00 0.00 77 1011.7
20260831060230 65 0 0.0 2.0 0.00 0.00 0.00 77 1011.7
20260831060055 65 0 0.0 0.0 0.00 0.00 0.00 78 1011.8
20260831055915 64 158 0.0 0.0 0.00 0.00 0.00 78 1011.9
20260831055723 64 158 0.0 3.0 0.00 0.00 0.00 79 1011.9
20260831055530 64 158 1.0 3.0 0.00 0.00 0.00 78 1011.9
20260831055350 64 158 1.0 3.0 0.00 0.00 0.00 78 1011.9
20260831055209 64 158 2.0 3.0 0.00 0.00 0.00 78 1012.0
20260831055020 64 158 2.0 5.0 0.00 0.00 0.00 78 1011.9
20260831054825 64 158 1.0 5.0 0.00 0.00 0.00 78 1012.0
20260831054725 64 158 1.0 5.0 0.00 0.00 0.00 78 1011.9
20260831054635 63 202 1.0 5.0 0.00 0.00 0.00 79 1012.0
20260831054445 63 202 1.0 5.0 0.00 0.00 0.00 79 1011.9
20260831054305 63 158 0.0 3.0 0.00 0.00 0.00 81 1011.9
20260831054115 63 0 0.0 0.0 0.00 0.00 0.00 82 1011.9
20260831053940 63 0 0.0 0.0 0.00 0.00 0.00 82 1011.9
20260831053759 63 0 0.0 0.0 0.00 0.00 0.00 82 1011.9
20260831053620 63 0 0.0 0.0 0.00 0.00 0.00 82 1011.9
20260831053420 63 0 0.0 0.0 0.00 0.00 0.00 82 1011.9
20260831053231 63 0 0.0 0.0 0.00 0.00 0.00 82 1011.9
20260831053039 63 0 0.0 0.0 0.00 0.00 0.00 82 1011.8
20260831052855 63 0 0.0 0.0 0.00 0.00 0.00 82 1011.8
20260831052835 63 0 0.0 0.0 0.00 0.00 0.00 81 1011.8
20260831052702 63 0 0.0 0.0 0.00 0.00 0.00 81 1011.8
20260831052510 63 0 0.0 0.0 0.00 0.00 0.00 82 1011.9
20260831052326 63 0 0.0 0.0 0.00 0.00 0.00 81 1011.9
20260831052146 63 0 0.0 0.0 0.00 0.00 0.00 81 1011.9
20260831052011 63 0 0.0 0.0 0.00 0.00 0.00 81 1011.9
20260831051815 63 90 0.0 1.0 0.00 0.00 0.00 81 1012.0
20260831051620 63 90 0.0 1.0 0.00 0.00 0.00 80 1012.0
20260831051420 63 90 1.0 2.0 0.00 0.00 0.00 81 1012.1
20260831051226 63 90 1.0 2.0 0.00 0.00 0.00 81 1012.1
20260831051128 63 90 1.0 3.0 0.00 0.00 0.00 81 1012.1
20260831051047 63 90 1.0 3.0 0.00 0.00 0.00 82 1012.0
20260831050850 63 90 2.0 5.0 0.00 0.00 0.00 81 1012.0
20260831050702 63 90 1.0 5.0 0.00 0.00 0.00 81 1012.0
20260831050525 63 90 1.0 5.0 0.00 0.00 0.00 82 1012.0
20260831050335 63 68 1.0 3.0 0.00 0.00 0.00 82 1012.0
20260831050155 62 68 1.0 3.0 0.00 0.00 0.00 82 1012.0
20260831050004 62 68 2.0 3.0 0.00 0.00 0.00 83 1012.0
20260831045815 62 68 2.0 3.0 0.00 0.00 0.00 83 1011.9
20260831045613 62 68 2.0 3.0 0.00 0.00 0.00 83 1012.0
20260831045430 62 68 1.0 3.0 0.00 0.00 0.00 83 1011.9
20260831045241 62 68 1.0 3.0 0.00 0.00 0.00 83 1011.9
20260831045055 62 68 1.0 3.0 0.00 0.00 0.00 84 1011.9
20260831044852 62 68 1.0 3.0 0.00 0.00 0.00 84 1012.0
20260831044704 62 68 1.0 3.0 0.00 0.00 0.00 84 1012.1
20260831044518 62 68 0.0 2.0 0.00 0.00 0.00 85 1012.0
20260831044340 62 68 0.0 2.0 0.00 0.00 0.00 85 1012.2
20260831044205 62 68 1.0 2.0 0.00 0.00 0.00 85 1012.2
20260831044010 62 68 1.0 2.0 0.00 0.00 0.00 85 1012.1
20260831043820 62 68 1.0 3.0 0.00 0.00 0.00 85 1012.1
20260831043640 62 68 1.0 3.0 0.00 0.00 0.00 85 1012.0
20260831043459 62 68 2.0 3.0 0.00 0.00 0.00 86 1012.0
20260831043413 61 68 2.0 3.0 0.00 0.00 0.00 86 1012.0
20260831043315 61 68 2.0 3.0 0.00 0.00 0.00 86 1012.0
20260831043125 61 68 1.0 3.0 0.00 0.00 0.00 86 1012.2
20260831042923 61 68 1.0 3.0 0.00 0.00 0.00 85 1012.2
20260831042740 61 68 0.0 2.0 0.00 0.00 0.00 86 1012.1
20260831042605 61 0 0.0 2.0 0.00 0.00 0.00 87 1012.1
20260831042425 61 0 0.0 0.0 0.00 0.00 0.00 88 1012.1
20260831042245 61 0 0.0 0.0 0.00 0.00 0.00 87 1011.9
20260831042103 61 68 0.0 0.0 0.00 0.00 0.00 88 1012.0
20260831041910 61 68 0.0 2.0 0.00 0.00 0.00 87 1012.0
20260831041725 61 68 0.0 2.0 0.00 0.00 0.00 87 1011.9
20260831041545 61 68 0.0 2.0 0.00 0.00 0.00 87 1011.8
20260831041355 61 68 0.0 1.0 0.00 0.00 0.00 87 1011.9
20260831041215 61 0 0.0 0.0 0.00 0.00 0.00 88 1011.9
20260831041035 62 0 0.0 0.0 0.00 0.00 0.00 87 1012.1
20260831040855 62 0 0.0 0.0 0.00 0.00 0.00 87 1012.0
20260831040715 62 0 0.0 0.0 0.00 0.00 0.00 87 1012.0
20260831040530 62 68 0.0 0.0 0.00 0.00 0.00 87 1012.0
20260831040330 62 68 0.0 0.0 0.00 0.00 0.00 87 1012.0
20260831040150 62 68 1.0 1.0 0.00 0.00 0.00 87 1012.1
20260831035931 62 68 1.0 2.0 0.00 0.00 0.00 87 1012.0
20260831035749 62 68 2.0 3.0 0.00 0.00 0.00 87 1012.1
20260831035559 61 68 1.0 5.0 0.00 0.00 0.00 87 1012.2
20260831035410 61 68 1.0 5.0 0.00 0.00 0.00 87 1012.1
20260831035215 61 68 1.0 5.0 0.00 0.00 0.00 87 1012.1
20260831035035 61 248 0.0 3.0 0.00 0.00 0.00 87 1012.2
20260831034835 61 0 0.0 2.0 0.00 0.00 0.00 87 1012.2
20260831034645 61 0 0.0 0.0 0.00 0.00 0.00 88 1012.4
20260831034523 61 248 0.0 0.0 0.00 0.00 0.00 88 1012.3
20260831034305 61 248 0.0 0.0 0.00 0.00 0.00 88 1012.3
20260831034113 61 248 0.0 2.0 0.00 0.00 0.00 89 1012.3
20260831034058 61 248 0.0 2.0 0.00 0.00 0.00 88 1012.3
20260831033925 61 248 0.0 2.0 0.00 0.00 0.00 89 1012.2
20260831033745 61 0 0.0 2.0 0.00 0.00 0.00 89 1012.3
20260831033554 61 0 0.0 0.0 0.00 0.00 0.00 89 1012.5
20260831033355 61 0 0.0 0.0 0.00 0.00 0.00 89 1012.5
20260831033155 61 0 0.0 0.0 0.00 0.00 0.00 89 1012.5
20260831033009 61 0 0.0 0.0 0.00 0.00 0.00 89 1012.5
20260831032805 61 0 0.0 0.0 0.00 0.00 0.00 89 1012.6
20260831032615 61 0 0.0 0.0 0.00 0.00 0.00 88 1012.6
20260831032445 61 0 0.0 0.0 0.00 0.00 0.00 88 1012.6
20260831032420 61 0 0.0 0.0 0.00 0.00 0.00 88 1012.5
20260831032239 61 0 0.0 0.0 0.00 0.00 0.00 88 1012.6
20260831032050 61 0 0.0 0.0 0.00 0.00 0.00 88 1012.6
20260831031900 61 0 0.0 0.0 0.00 0.00 0.00 88 1012.6
20260831031710 61 0 0.0 0.0 0.00 0.00 0.00 88 1012.5
20260831031525 61 0 0.0 0.0 0.00 0.00 0.00 88 1012.6
20260831031330 61 0 0.0 0.0 0.00 0.00 0.00 88 1012.6
20260831031145 61 0 0.0 0.0 0.00 0.00 0.00 88 1012.5
20260831031005 61 0 0.0 0.0 0.00 0.00 0.00 89 1012.6
20260831030932 61 0 0.0 0.0 0.00 0.00 0.00 89 1012.5
20260831030807 61 0 0.0 0.0 0.00 0.00 0.00 89 1012.5
20260831030618 61 0 0.0 0.0 0.00 0.00 0.00 89 1012.6
20260831030420 61 0 0.0 0.0 0.00 0.00 0.00 89 1012.6
20260831030224 61 0 0.0 0.0 0.00 0.00 0.00 89 1012.5
20260831030030 61 0 0.0 0.0 0.00 0.00 0.00 89 1012.6
20260831025835 61 0 0.0 0.0 0.00 0.00 0.00 89 1012.6
20260831025650 61 0 0.0 0.0 0.00 0.00 0.00 88 1012.6
20260831025512 61 0 0.0 0.0 0.00 0.00 0.00 88 1012.7
20260831025315 61 0 0.0 0.0 0.00 0.00 0.00 89 1012.6
20260831025228 61 0 0.0 0.0 0.00 0.00 0.00 89 1012.8
20260831025130 61 0 0.0 0.0 0.00 0.00 0.00 89 1012.7
20260831024945 61 0 0.0 0.0 0.00 0.00 0.00 89 1012.6
20260831024755 61 0 0.0 0.0 0.00 0.00 0.00 89 1012.7
20260831024612 61 0 0.0 0.0 0.00 0.00 0.00 89 1012.6
20260831024438 61 248 0.0 0.0 0.00 0.00 0.00 89 1012.7
20260831024244 61 248 0.0 0.0 0.00 0.00 0.00 89 1012.6
20260831024055 61 248 0.0 1.0 0.00 0.00 0.00 89 1012.6
20260831023855 61 248 1.0 1.0 0.00 0.00 0.00 89 1012.5
20260831023710 61 248 1.0 1.0 0.00 0.00 0.00 89 1012.6
20260831023515 61 248 1.0 3.0 0.00 0.00 0.00 89 1012.5
20260831023433 61 248 1.0 3.0 0.00 0.00 0.00 89 1012.5
20260831023321 61 248 1.0 3.0 0.00 0.00 0.00 89 1012.6
20260831023135 61 248 1.0 3.0 0.00 0.00 0.00 89 1012.5
20260831022945 61 248 1.0 3.0 0.00 0.00 0.00 90 1012.5
20260831022755 61 248 1.0 3.0 0.00 0.00 0.00 90 1012.5
20260831022558 61 248 0.0 2.0 0.00 0.00 0.00 90 1012.5
20260831022409 61 248 0.0 2.0 0.00 0.00 0.00 90 1012.6
20260831022220 61 248 0.0 2.0 0.00 0.00 0.00 90 1012.6
20260831022035 61 248 0.0 2.0 0.00 0.00 0.00 90 1012.6
20260831021855 61 248 1.0 2.0 0.00 0.00 0.00 90 1012.7
20260831021817 61 248 1.0 2.0 0.00 0.00 0.00 90 1012.7
20260831021516 61 248 1.0 2.0 0.00 0.00 0.00 90 1012.7
20260831021337 61 248 1.0 2.0 0.00 0.00 0.00 90 1012.7
20260831021140 61 248 1.0 3.0 0.00 0.00 0.00 90 1012.7
20260831020950 61 248 1.0 3.0 0.00 0.00 0.00 91 1012.7
20260831020810 61 248 0.0 3.0 0.00 0.00 0.00 91 1012.7
20260831020610 61 0 0.0 0.0 0.00 0.00 0.00 90 1012.6
20260831020430 61 0 0.0 0.0 0.00 0.00 0.00 90 1012.7
20260831020243 60 0 0.0 0.0 0.00 0.00 0.00 90 1012.7
20260831020045 60 0 0.0 0.0 0.00 0.00 0.00 90 1012.7
20260831015850 60 0 0.0 0.0 0.00 0.00 0.00 90 1012.6
20260831015650 60 0 0.0 0.0 0.00 0.00 0.00 90 1012.7
20260831015500 60 0 0.0 0.0 0.00 0.00 0.00 91 1012.7
20260831015320 60 0 0.0 0.0 0.00 0.00 0.00 91 1012.7
20260831015140 60 0 0.0 0.0 0.00 0.00 0.00 90 1012.8
20260831015000 60 0 0.0 0.0 0.00 0.00 0.00 90 1012.8
20260831014810 60 0 0.0 0.0 0.00 0.00 0.00 90 1012.8
20260831014624 60 0 0.0 0.0 0.00 0.00 0.00 90 1012.8
20260831014431 60 0 0.0 0.0 0.00 0.00 0.00 90 1012.7
20260831014407 61 0 0.0 0.0 0.00 0.00 0.00 90 1012.7
20260831014255 61 248 0.0 0.0 0.00 0.00 0.00 90 1012.7
20260831014100 61 248 0.0 0.0 0.00 0.00 0.00 89 1012.8
20260831013919 61 248 0.0 0.0 0.00 0.00 0.00 89 1012.8
20260831013740 61 248 0.0 2.0 0.00 0.00 0.00 89 1012.7
20260831013550 61 248 0.0 2.0 0.00 0.00 0.00 89 1012.8
20260831013411 61 0 0.0 2.0 0.00 0.00 0.00 89 1012.9
20260831013220 60 0 0.0 0.0 0.00 0.00 0.00 89 1012.9
20260831013025 60 0 0.0 0.0 0.00 0.00 0.00 90 1012.9
20260831012830 60 0 0.0 0.0 0.00 0.00 0.00 89 1012.9
20260831012650 61 0 0.0 0.0 0.00 0.00 0.00 89 1013.0
20260831012514 61 0 0.0 0.0 0.00 0.00 0.00 89 1013.1
20260831012454 61 0 0.0 0.0 0.00 0.00 0.00 89 1013.1
20260831012306 61 0 0.0 0.0 0.00 0.00 0.00 89 1013.0
20260831012112 61 0 0.0 0.0 0.00 0.00 0.00 89 1013.0
20260831011930 61 0 0.0 0.0 0.00 0.00 0.00 88 1013.0
20260831011730 61 0 0.0 0.0 0.00 0.00 0.00 88 1013.0
20260831011538 61 0 0.0 0.0 0.00 0.00 0.00 88 1013.0
20260831011345 61 0 0.0 0.0 0.00 0.00 0.00 88 1013.0
20260831011200 61 0 0.0 0.0 0.00 0.00 0.00 88 1013.0
20260831011015 61 0 0.0 0.0 0.00 0.00 0.00 87 1013.0
20260831010820 61 0 0.0 0.0 0.00 0.00 0.00 88 1013.0
20260831010807 61 0 0.0 0.0 0.00 0.00 0.00 87 1013.0
20260831010635 62 0 0.0 0.0 0.00 0.00 0.00 87 1013.1
20260831010445 62 0 0.0 0.0 0.00 0.00 0.00 87 1013.1
20260831010245 62 0 0.0 0.0 0.00 0.00 0.00 87 1013.1
20260831010100 62 0 0.0 0.0 0.00 0.00 0.00 87 1013.1
20260831005905 62 0 0.0 0.0 0.00 0.00 0.00 86 1013.1
20260831005705 62 0 0.0 0.0 0.00 0.00 0.00 86 1013.1
20260831005345 62 0 0.0 0.0 0.00 0.00 0.00 87 1013.3
20260831005238 62 0 0.0 0.0 0.00 0.00 0.00 87 1013.2
20260831005150 62 0 0.0 0.0 0.00 0.00 0.00 87 1013.2
20260831004949 62 0 0.0 0.0 0.00 0.00 0.00 87 1013.2
20260831004750 62 0 0.0 0.0 0.00 0.00 0.00 87 1013.2
20260831004550 62 0 0.0 0.0 0.00 0.00 0.00 87 1013.3
20260831004410 62 0 0.0 0.0 0.00 0.00 0.00 87 1013.3
20260831004235 62 0 0.0 0.0 0.00 0.00 0.00 87 1013.3
20260831004041 62 0 0.0 0.0 0.00 0.00 0.00 87 1013.3
20260831003855 62 0 0.0 0.0 0.00 0.00 0.00 87 1013.4
20260831003659 62 0 0.0 0.0 0.00 0.00 0.00 87 1013.4
20260831003557 62 0 0.0 0.0 0.00 0.00 0.00 87 1013.3
20260831003519 62 0 0.0 0.0 0.00 0.00 0.00 87 1013.4
20260831003330 62 0 0.0 0.0 0.00 0.00 0.00 87 1013.4
20260831003135 62 0 0.0 0.0 0.00 0.00 0.00 87 1013.4
20260831002935 62 0 0.0 0.0 0.00 0.00 0.00 86 1013.4
20260831002737 62 0 0.0 2.0 0.00 0.00 0.00 86 1013.4
20260831002542 62 0 0.0 2.0 0.00 0.00 0.00 87 1013.5
20260831002350 62 0 0.0 2.0 0.00 0.00 0.00 87 1013.4
20260831002148 62 0 0.0 0.0 0.00 0.00 0.00 87 1013.5
20260831001948 62 0 0.0 0.0 0.00 0.00 0.00 86 1013.4
20260831001757 62 0 0.0 0.0 0.00 0.00 0.00 84 1013.4
20260831001632 62 0 0.0 0.0 0.00 0.00 0.00 84 1013.4
20260831001444 62 0 0.0 0.0 0.00 0.00 0.00 84 1013.4
20260831001240 62 0 0.0 0.0 0.00 0.00 0.00 84 1013.4
20260831001116 63 0 0.0 0.0 0.00 0.00 0.00 84 1013.4
20260831000904 63 0 0.0 0.0 0.00 0.00 0.00 84 1013.4
20260831000707 63 0 0.0 0.0 0.00 0.00 0.00 83 1013.4
20260831000515 63 0 0.0 0.0 0.00 0.00 0.00 83 1013.4
20260831000315 63 0 0.0 0.0 0.00 0.00 0.00 82 1013.4
20260831000135 63 0 0.0 0.0 0.00 0.00 0.00 82 1013.5
20260831000010 64 0 0.0 0.0 0.00 0.00 0.00 82 1013.5
20260830235935 64 0 0.0 0.0 0.00 0.00 0.00 82 1013.5
20260830235740 64 0 0.0 0.0 0.00 0.00 0.00 82 1013.4
20260830235550 64 0 0.0 0.0 0.00 0.00 0.00 81 1013.4
20260830235410 64 0 0.0 0.0 0.00 0.00 0.00 81 1013.4
20260830235230 65 0 0.0 0.0 0.00 0.00 0.00 80 1013.4
20260830235034 65 0 0.0 0.0 0.00 0.00 0.00 79 1013.4
20260830234840 65 0 0.0 0.0 0.00 0.00 0.00 79 1013.4
20260830234650 65 0 0.0 0.0 0.00 0.00 0.00 78 1013.5
20260830234510 65 0 0.0 0.0 0.00 0.00 0.00 78 1013.5
20260830234335 65 0 0.0 0.0 0.00 0.00 0.00 77 1013.5
20260830234237 65 248 0.0 0.0 0.00 0.00 0.00 77 1013.6
20260830234152 65 248 0.0 0.0 0.00 0.00 0.00 77 1013.6
20260830234000 65 248 0.0 1.0 0.00 0.00 0.00 77 1013.5
20260830233820 65 248 0.0 2.0 0.00 0.00 0.00 77 1013.4
20260830233634 65 248 0.0 2.0 0.00 0.00 0.00 77 1013.5
20260830233439 65 248 0.0 2.0 0.00 0.00 0.00 77 1013.5
20260830233244 65 248 0.0 0.0 0.00 0.00 0.00 76 1013.5
20260830233055 66 248 0.0 3.0 0.00 0.00 0.00 76 1013.4
20260830232900 66 248 0.0 3.0 0.00 0.00 0.00 76 1013.5
20260830232700 66 0 0.0 3.0 0.00 0.00 0.00 76 1013.5
20260830232505 66 248 0.0 0.0 0.00 0.00 0.00 76 1013.4
20260830232457 66 248 0.0 0.0 0.00 0.00 0.00 76 1013.5
20260830232311 66 248 0.0 0.0 0.00 0.00 0.00 76 1013.5
20260830232120 66 248 0.0 2.0 0.00 0.00 0.00 76 1013.5
20260830231940 66 248 0.0 2.0 0.00 0.00 0.00 76 1013.4
20260830231744 66 248 0.0 2.0 0.00 0.00 0.00 75 1013.4
20260830231600 66 248 0.0 2.0 0.00 0.00 0.00 75 1013.5
20260830231410 66 248 0.0 1.0 0.00 0.00 0.00 75 1013.4
20260830231220 66 248 1.0 2.0 0.00 0.00 0.00 75 1013.4
20260830231022 66 248 1.0 2.0 0.00 0.00 0.00 75 1013.5
20260830230830 66 248 1.0 3.0 0.00 0.00 0.00 75 1013.5
20260830230710 66 248 1.0 3.0 0.00 0.00 0.00 74 1013.5
20260830230644 66 248 1.0 4.0 0.00 0.00 0.00 74 1013.4
20260830230500 66 248 1.0 4.0 0.00 0.00 0.00 74 1013.4
20260830230310 66 248 1.0 4.0 0.00 0.00 0.00 74 1013.5
20260830230120 66 248 1.0 3.0 0.00 0.00 0.00 74 1013.4
20260830225935 66 248 1.0 4.0 0.00 0.00 0.00 74 1013.4
20260830225735 66 248 1.0 4.0 0.00 0.00 0.00 74 1013.4
20260830225544 66 248 1.0 4.0 0.00 0.00 0.00 75 1013.5
20260830225355 66 248 1.0 2.0 0.00 0.00 0.00 74 1013.5
20260830225153 66 248 2.0 3.0 0.00 0.00 0.00 74 1013.5
20260830225101 67 248 2.0 3.0 0.00 0.00 0.00 74 1013.5
20260830225004 67 248 2.0 3.0 0.00 0.00 0.00 74 1013.6
20260830224810 67 248 2.0 3.0 0.00 0.00 0.00 74 1013.6
20260830224615 67 248 2.0 3.0 0.00 0.00 0.00 74 1013.5
20260830224435 67 248 2.0 3.0 0.00 0.00 0.00 74 1013.6
20260830224236 67 248 2.0 3.0 0.00 0.00 0.00 74 1013.5
20260830224050 67 248 2.0 2.0 0.00 0.00 0.00 74 1013.5
20260830223904 67 248 2.0 4.0 0.00 0.00 0.00 74 1013.4
20260830223710 67 248 2.0 4.0 0.00 0.00 0.00 73 1013.4
20260830223524 67 248 2.0 5.0 0.00 0.00 0.00 73 1013.4
20260830223339 67 225 2.0 5.0 0.00 0.00 0.00 73 1013.3
20260830223201 67 248 2.0 5.0 0.00 0.00 0.00 73 1013.3
20260830223015 67 248 3.0 5.0 0.00 0.00 0.00 73 1013.4
20260830222830 67 248 3.0 5.0 0.00 0.00 0.00 73 1013.5
20260830222641 67 292 3.0 5.0 0.00 0.00 0.00 73 1013.5
20260830222455 67 292 3.0 6.0 0.00 0.00 0.00 73 1013.5
20260830222300 67 270 3.0 6.0 0.00 0.00 0.00 72 1013.5
20260830222120 67 248 3.0 5.0 0.00 0.00 0.00 72 1013.5
20260830221940 67 270 3.0 5.0 0.00 0.00 0.00 73 1013.4
20260830221922 67 248 3.0 5.0 0.00 0.00 0.00 73 1013.5
20260830221740 67 248 3.0 5.0 0.00 0.00 0.00 73 1013.6
20260830221550 67 202 3.0 4.0 0.00 0.00 0.00 73 1013.5
20260830221355 67 202 3.0 4.0 0.00 0.00 0.00 73 1013.6
20260830221215 67 202 3.0 4.0 0.00 0.00 0.00 73 1013.6
20260830221015 67 202 2.0 5.0 0.00 0.00 0.00 72 1013.6
20260830220831 67 248 2.0 4.0 0.00 0.00 0.00 73 1013.6
20260830220639 67 270 2.0 4.0 0.00 0.00 0.00 73 1013.5
20260830220503 67 270 2.0 4.0 0.00 0.00 0.00 73 1013.5
20260830220257 67 270 2.0 3.0 0.00 0.00 0.00 73 1013.6
20260830220124 67 270 2.0 3.0 0.00 0.00 0.00 73 1013.6
20260830215935 67 225 3.0 4.0 0.00 0.00 0.00 73 1013.6
20260830215740 67 225 3.0 5.0 0.00 0.00 0.00 72 1013.6
20260830215600 67 225 3.0 5.0 0.00 0.00 0.00 72 1013.5
20260830215404 67 248 2.0 5.0 0.00 0.00 0.00 72 1013.5
20260830215204 67 248 2.0 5.0 0.00 0.00 0.00 72 1013.4
20260830215024 67 248 2.0 5.0 0.00 0.00 0.00 72 1013.5
20260830214840 67 270 2.0 5.0 0.00 0.00 0.00 72 1013.5
20260830214704 67 202 2.0 5.0 0.00 0.00 0.00 72 1013.5
20260830214523 67 202 2.0 4.0 0.00 0.00 0.00 73 1013.5
20260830214412 67 202 2.0 4.0 0.00 0.00 0.00 73 1013.5
20260830214344 67 225 2.0 3.0 0.00 0.00 0.00 73 1013.5
20260830214152 67 225 2.0 4.0 0.00 0.00 0.00 73 1013.4
20260830213959 67 225 2.0 4.0 0.00 0.00 0.00 73 1013.5
20260830213810 67 225 1.0 4.0 0.00 0.00 0.00 73 1013.5
20260830213630 67 225 1.0 4.0 0.00 0.00 0.00 73 1013.4
20260830213444 67 225 1.0 4.0 0.00 0.00 0.00 73 1013.4
20260830213255 67 248 1.0 4.0 0.00 0.00 0.00 72 1013.4
20260830213115 67 248 1.0 4.0 0.00 0.00 0.00 72 1013.4
20260830212924 67 248 2.0 4.0 0.00 0.00 0.00 72 1013.4
20260830212742 67 248 2.0 5.0 0.00 0.00 0.00 72 1013.4
20260830212550 67 225 2.0 5.0 0.00 0.00 0.00 72 1013.4
20260830212528 67 225 2.0 5.0 0.00 0.00 0.00 72 1013.4
20260830212404 67 225 2.0 5.0 0.00 0.00 0.00 72 1013.4
20260830212220 67 225 2.0 4.0 0.00 0.00 0.00 72 1013.3
20260830212036 67 202 2.0 4.0 0.00 0.00 0.00 72 1013.4
20260830211844 67 292 2.0 3.0 0.00 0.00 0.00 72 1013.4
20260830211650 67 292 1.0 3.0 0.00 0.00 0.00 73 1013.3
20260830211500 67 292 1.0 3.0 0.00 0.00 0.00 74 1013.4
20260830211320 67 292 1.0 3.0 0.00 0.00 0.00 74 1013.4
20260830211125 67 292 1.0 2.0 0.00 0.00 0.00 75 1013.4
20260830210935 67 292 1.0 2.0 0.00 0.00 0.00 75 1013.4
20260830210849 67 292 0.0 2.0 0.00 0.00 0.00 75 1013.5
20260830210744 67 292 0.0 2.0 0.00 0.00 0.00 76 1013.4
20260830210604 67 292 0.0 2.0 0.00 0.00 0.00 76 1013.5
20260830210420 66 0 0.0 0.0 0.00 0.00 0.00 77 1013.4
20260830210235 66 0 0.0 0.0 0.00 0.00 0.00 76 1013.4
20260830210036 66 0 0.0 0.0 0.00 0.00 0.00 77 1013.4
20260830205851 66 0 0.0 0.0 0.00 0.00 0.00 76 1013.4
20260830205704 66 0 0.0 0.0 0.00 0.00 0.00 76 1013.4
20260830205510 65 0 0.0 0.0 0.00 0.00 0.00 76 1013.5
20260830205319 65 0 0.0 0.0 0.00 0.00 0.00 77 1013.4
20260830205158 65 0 0.0 0.0 0.00 0.00 0.00 78 1013.4
20260830205135 65 0 0.0 0.0 0.00 0.00 0.00 79 1013.5
20260830204944 65 0 0.0 0.0 0.00 0.00 0.00 80 1013.5
20260830204742 65 0 0.0 0.0 0.00 0.00 0.00 80 1013.4
20260830204605 65 0 0.0 0.0 0.00 0.00 0.00 80 1013.5
20260830204420 65 0 0.0 0.0 0.00 0.00 0.00 79 1013.5
20260830204220 65 0 0.0 0.0 0.00 0.00 0.00 79 1013.4
20260830204020 65 0 0.0 0.0 0.00 0.00 0.00 79 1013.4
20260830203844 65 0 0.0 0.0 0.00 0.00 0.00 79 1013.3
20260830203700 65 0 0.0 0.0 0.00 0.00 0.00 79 1013.4
20260830203504 65 0 0.0 0.0 0.00 0.00 0.00 78 1013.4
20260830203428 65 0 0.0 0.0 0.00 0.00 0.00 78 1013.3
20260830203315 65 0 0.0 0.0 0.00 0.00 0.00 78 1013.3
20260830203115 65 0 0.0 0.0 0.00 0.00 0.00 78 1013.4
20260830202924 65 0 0.0 0.0 0.00 0.00 0.00 78 1013.3
20260830202741 65 0 0.0 0.0 0.00 0.00 0.00 78 1013.5
20260830202543 65 0 0.0 0.0 0.00 0.00 0.00 78 1013.5
20260830202404 65 0 0.0 0.0 0.00 0.00 0.00 78 1013.5
20260830202220 65 0 0.0 0.0 0.00 0.00 0.00 78 1013.4
20260830202020 65 0 0.0 0.0 0.00 0.00 0.00 78 1013.4
20260830201902 65 0 0.0 0.0 0.00 0.00 0.00 78 1013.4
20260830201820 65 0 0.0 0.0 0.00 0.00 0.00 79 1013.4
20260830201620 65 0 0.0 0.0 0.00 0.00 0.00 79 1013.3
20260830201430 65 0 0.0 0.0 0.00 0.00 0.00 80 1013.4
20260830201245 65 0 0.0 0.0 0.00 0.00 0.00 79 1013.4
20260830201104 65 0 0.0 0.0 0.00 0.00 0.00 78 1013.4
20260830200920 65 0 0.0 0.0 0.00 0.00 0.00 78 1013.4
20260830200744 65 0 0.0 0.0 0.00 0.00 0.00 78 1013.4
20260830200604 65 0 0.0 0.0 0.00 0.00 0.00 78 1013.4
20260830200420 65 0 0.0 0.0 0.00 0.00 0.00 79 1013.3
20260830200240 65 0 0.0 0.0 0.00 0.00 0.00 79 1013.3
20260830200047 65 0 0.0 0.0 0.00 0.00 0.00 77 1013.4
20260830195912 65 0 0.0 0.0 0.00 0.00 0.00 77 1013.5
20260830195725 65 0 0.0 0.0 0.00 0.00 0.00 77 1013.4
20260830195539 66 0 0.0 0.0 0.00 0.00 0.00 76 1013.4
20260830195350 66 0 0.0 0.0 0.00 0.00 0.00 75 1013.4
20260830195201 66 0 0.0 0.0 0.00 0.00 0.00 75 1013.4
20260830195004 66 0 0.0 0.0 0.00 0.00 0.00 74 1013.4
20260830194804 66 0 0.0 0.0 0.00 0.00 0.00 74 1013.5
20260830194615 67 0 0.0 0.0 0.00 0.00 0.00 73 1013.4
20260830194425 67 0 0.0 0.0 0.00 0.00 0.00 73 1013.4